[[{"header":{"parameterUnit":"m.s-1","parameterCategory":1,"la1":30.2991,"la2":30.254,"lo1":-89.0895,"lo2":-89.0444,"dy":0.0017,"dx":0.0017,"nx":28,"ny":28,"refTime":"2026-03-02T09:00:00:Z","depth":0,"parameterNumber":2,"parameterNumberName":"U-component_of_WINDS"},"data":[0,0,0,0,0,0,0,0,0,0,0,0,0,0,0,0,0,0,0,0,0,0,0,0,0,0,0,0,0,0,0,0,0,0,0,0,0,0,0,0,0,0,0,0,0,0,0,0,0,0,0,0,0,0,0,0,0,0,-1.0438,-1.0439,0,-1.0459,-1.0459,-1.0459,-1.0433,-1.0432,-1.0431,-1.043,-1.0451,-1.0452,-1.0454,0,0,0,0,0,0,0,0,0,0,0,0,0,-1.0377,-1.0378,-1.0438,-1.0439,-1.0439,-1.0459,-1.0459,-1.0459,-1.0433,-1.0432,-1.0431,-1.043,-1.0451,-1.0452,-1.0454,0,0,0,0,0,0,0,0,0,0,0,0,0,-1.0401,-1.0379,-1.0438,-1.0428,-1.0428,-1.0459,-1.0459,-1.0459,-1.0433,-1.0432,-1.0431,-1.0429,-1.045,-1.0452,-1.0454,-1.0496,0,0,-1.0461,-1.0462,0,0,0,0,0,0,0,0,-1.04,-1.0403,-1.043,-1.0429,-1.0428,-1.0442,-1.0445,-1.0472,-1.0434,-1.0431,-1.043,-1.0429,-1.0449,-1.0451,-1.0458,-1.0497,-1.0498,-1.0461,-1.0462,-1.0463,-1.0464,0,0,0,0,0,0,0,-1.0398,-1.0402,-1.0446,-1.043,-1.0429,-1.0423,-1.0425,-1.045,-1.0448,-1.0431,-1.043,-1.0432,-1.0449,-1.0456,-1.0459,-1.0498,-1.0461,-1.0463,-1.0464,-1.0465,-1.0574,-1.0575,0,0,0,0,0,0,-1.0398,-1.0401,-1.0446,-1.0447,-1.041,-1.0425,-1.0427,-1.0439,-1.0448,-1.0448,-1.0434,-1.0431,-1.0453,-1.0456,-1.0459,-1.051,-1.0463,-1.0465,-1.0467,-1.0572,-1.0574,-1.0576,0,0,0,0,0,0,-1.0397,-1.0402,-1.0445,-1.0424,-1.0429,-1.0428,-1.0441,-1.044,-1.0448,-1.0449,-1.0449,-1.0442,-1.0452,-1.0456,-1.0487,-1.051,-1.0466,-1.0468,-1.057,-1.0573,-1.0575,-1.061,0,0,0,0,0,0,-1.0395,-1.0402,-1.0417,-1.0424,-1.043,-1.0473,-1.0443,-1.0442,-1.0452,-1.0449,-1.0457,-1.0457,-1.0451,-1.0484,-1.049,-1.0512,-1.047,-1.0568,-1.0571,-1.0574,-1.0607,-1.0614,-1.0619,0,0,0,0,0,-1.0393,-1.0426,-1.0418,-1.0424,-1.045,-1.0474,-1.0477,-1.0471,-1.0454,-1.047,-1.0471,-1.0457,-1.0507,-1.0488,-1.0493,-1.0517,-1.0567,-1.057,-1.0574,-1.0605,-1.0612,-1.0619,0,0,0,0,0,0,-1.0422,-1.0427,-1.0418,-1.0455,-1.0465,-1.047,-1.049,-1.0479,-1.0493,-1.049,-1.0481,-1.0483,-1.0516,-1.052,-1.0499,-1.0559,-1.0534,-1.0539,-1.0555,-1.0563,-1.0569,-1.0568,-1.0472,0,0,0,0,0,-1.0433,-1.0452,-1.0456,-1.0488,-1.0493,-1.0491,-1.0501,-1.0495,-1.0504,-1.0508,-1.0511,-1.0521,-1.0539,-1.0551,-1.0567,-1.0607,-1.0609,-1.0627,-1.0633,-1.0637,-1.0642,-1.0665,-1.0672,-1.0587,-1.0587,-1.0587,0,0,-1.0455,-1.0461,-1.0473,-1.0494,-1.05,-1.0521,-1.0494,-1.0517,-1.0532,-1.0511,-1.0542,-1.0544,-1.0554,-1.0591,-1.0607,-1.0594,-1.0666,-1.0642,-1.0646,-1.0648,-1.0669,-1.0677,-1.0684,-1.059,-1.0589,-1.0589,0,0,-1.0507,-1.0513,-1.0541,-1.0548,-1.0558,-1.0556,-1.0563,-1.057,-1.0571,-1.0601,-1.0587,-1.0605,-1.0635,-1.0644,-1.0652,-1.0707,-1.0695,-1.0713,-1.0745,-1.0767,-1.0773,-1.0779,-1.08,-1.0808,-1.0717,-1.0717,-1.0717,0,-1.0534,-1.0564,-1.0556,-1.058,-1.059,-1.0573,-1.0601,-1.0608,-1.0624,-1.0631,-1.0617,-1.0656,-1.0661,-1.07,-1.0713,-1.072,-1.0728,-1.0712,-1.0773,-1.0779,-1.0784,-1.0804,-1.0812,-1.072,-1.0719,-1.0719,-1.0719,0,-1.0597,-1.0618,-1.064,-1.0655,-1.0667,-1.0694,-1.069,-1.0703,-1.0696,-1.0696,-1.0727,-1.0733,-1.0751,-1.0759,-1.0753,-1.0797,-1.0789,-1.0774,-1.075,-1.0795,-1.0813,-1.0821,-1.0723,-1.0722,-1.0721,-1.0721,0,0,-1.0668,-1.0679,-1.0687,-1.0694,-1.0705,-1.0721,-1.0747,-1.0764,-1.0776,-1.0787,-1.0809,-1.0836,-1.0823,-1.0832,-1.0826,-1.0845,-1.089,-1.0828,-1.0828,-1.084,-1.0941,-1.0953,-1.0961,-1.0882,-1.0883,-1.0884,-1.094,0,-1.072,-1.0765,-1.0759,-1.0802,-1.0822,-1.0805,-1.0828,-1.0837,-1.0838,-1.0855,-1.0855,-1.0875,-1.0855,-1.0861,-1.0879,-1.0881,-1.091,-1.0876,-1.0903,-1.0904,-1.0902,-1.0971,-1.0983,-1.1036,-1.0947,-1.0948,-1.0949,0,-1.0788,-1.0802,-1.0847,-1.0855,-1.0863,-1.0883,-1.09,-1.0916,-1.0926,-1.0925,-1.0936,-1.0927,-1.0953,-1.0927,-1.0964,-1.0941,-1.0951,-1.0954,-1.0955,-1.0958,-1.093,-1.0977,-1.1052,-1.1061,-1.096,-1.0959,-1.0959,0,-1.0836,-1.0866,-1.0898,-1.0904,-1.0914,-1.0929,-1.0933,-1.0942,-1.0953,-1.0967,-1.0975,-1.0992,-1.1001,-1.1015,-1.101,-1.0992,-1.1048,-1.1022,-1.1049,-1.1049,-1.1062,-1.1061,-1.1141,-1.1067,-1.1067,-1.1067,-1.1067,0,-1.0896,-1.0925,-1.092,-1.0939,-1.097,-1.0963,-1.0994,-1.0997,-1.1005,-1.1025,-1.1011,-1.103,-1.1023,-1.1042,-1.1039,-1.107,-1.1074,-1.1074,-1.1073,-1.1076,-1.1076,-1.1084,-1.108,-1.1069,-1.1068,-1.1068,-1.1068,0,-1.0956,-1.0954,-1.0987,-1.0993,-1.0996,-1.1019,-1.1025,-1.1043,-1.1043,-1.1068,-1.1073,-1.1073,-1.1094,-1.1091,-1.1115,-1.1113,-1.1152,-1.1146,-1.1149,-1.1148,-1.1175,-1.1173,-1.1264,-1.1276,-1.1193,-1.1193,-1.1194,0,-1.0995,-1.1017,-1.1026,-1.1038,-1.1044,-1.1064,-1.1076,-1.1069,-1.1082,-1.1095,-1.1112,-1.1132,-1.1148,-1.1183,-1.1185,-1.1203,-1.1198,-1.1229,-1.1201,-1.1203,-1.12,-1.1199,-1.1202,-1.1234,-1.1235,-1.1236,-1.1237,0,-1.1065,-1.1063,-1.108,-1.1097,-1.1111,-1.1124,-1.1136,-1.1147,-1.1142,-1.1157,-1.1178,-1.1191,-1.1215,-1.1236,-1.1253,-1.1258,-1.1247,-1.1245,-1.1253,-1.1256,-1.1258,-1.1259,-1.1165,-1.1243,-1.1243,-1.1242,-1.1242,-1.1242,-1.1116,-1.1135,-1.1145,-1.1164,-1.1173,-1.1184,-1.1202,-1.1204,-1.1222,-1.1241,-1.1236,-1.1261,-1.1271,-1.1293,-1.13,-1.132,-1.1309,-1.1319,-1.1322,-1.1325,-1.1329,-1.1254,-1.1323,-1.1323,-1.1323,-1.1322,-1.1322,0,-1.1186,-1.1192,-1.121,-1.1227,-1.1243,-1.1231,-1.1243,-1.1257,-1.128,-1.129,-1.1306,-1.1331,-1.1351,-1.1355,-1.1374,-1.1389,-1.1385,-1.1394,-1.1394,-1.1395,-1.1337,-1.133,-1.1398,-1.1398,-1.1398,-1.1398,-1.1398,-1.1398,-1.1225,-1.1256,-1.1255,-1.1291,-1.1296,-1.132,-1.1329,-1.134,-1.1348,-1.1377,-1.1393,-1.1396,-1.1404,-1.1423,-1.1441,-1.1442,-1.145,-1.1462,-1.1461,-1.1407,-1.1399,-1.1392,-1.1385,-1.1464,-1.1464,-1.1518,-1.1518,-1.1518]},{"header":{"parameterUnit":"m.s-1","parameterCategory":1,"la1":30.2991,"la2":30.254,"lo1":-89.0895,"lo2":-89.0444,"dy":0.0017,"dx":0.0017,"nx":28,"ny":28,"refTime":"2026-03-02T09:00:00:Z","depth":0,"parameterNumber":3,"parameterNumberName":"V-component_of_WINDS"},"data":[0,0,0,0,0,0,0,0,0,0,0,0,0,0,0,0,0,0,0,0,0,0,0,0,0,0,0,0,0,0,0,0,0,0,0,0,0,0,0,0,0,0,0,0,0,0,0,0,0,0,0,0,0,0,0,0,0,0,1.1667,1.1667,0,1.1696,1.1697,1.1697,1.1698,1.1698,1.1697,1.1697,1.1727,1.1729,1.173,0,0,0,0,0,0,0,0,0,0,0,0,0,1.1613,1.1614,1.1667,1.1667,1.1668,1.1696,1.1697,1.1697,1.1698,1.1698,1.1697,1.1697,1.1727,1.1728,1.173,0,0,0,0,0,0,0,0,0,0,0,0,0,1.1639,1.1614,1.1667,1.1672,1.1672,1.1696,1.1697,1.1697,1.1698,1.1698,1.1697,1.1697,1.1727,1.1728,1.173,1.1751,0,0,1.1735,1.1736,0,0,0,0,0,0,0,0,1.1637,1.1641,1.1671,1.1671,1.1672,1.1693,1.1689,1.1715,1.1698,1.1688,1.1697,1.1696,1.1716,1.1719,1.1726,1.1753,1.1754,1.1735,1.1736,1.1737,1.1738,0,0,0,0,0,0,0,1.1635,1.1639,1.1679,1.1671,1.1672,1.1673,1.1676,1.1694,1.1705,1.1689,1.1689,1.1693,1.1717,1.1724,1.1726,1.1754,1.1735,1.1737,1.1738,1.1739,1.1802,1.1802,0,0,0,0,0,0,1.1633,1.1638,1.1678,1.1679,1.1653,1.1674,1.1678,1.1687,1.1705,1.1707,1.1693,1.1693,1.1721,1.1724,1.1727,1.1754,1.1737,1.1739,1.174,1.1801,1.1802,1.1803,0,0,0,0,0,0,1.1631,1.1636,1.1676,1.1659,1.1664,1.1676,1.1686,1.1688,1.1695,1.1708,1.171,1.1698,1.1721,1.1725,1.1746,1.1755,1.1739,1.1741,1.18,1.1801,1.1802,1.1808,0,0,0,0,0,0,1.163,1.1636,1.1643,1.1659,1.1665,1.1694,1.1687,1.1689,1.1698,1.1697,1.1713,1.1715,1.1721,1.1743,1.1747,1.1758,1.1742,1.18,1.1801,1.1802,1.1807,1.1809,1.1811,0,0,0,0,0,1.1628,1.1644,1.1644,1.1649,1.1675,1.1694,1.1698,1.1703,1.1699,1.1707,1.1715,1.1715,1.1754,1.1745,1.175,1.1761,1.1799,1.18,1.1802,1.1806,1.1809,1.1811,0,0,0,0,0,0,1.1629,1.1646,1.1646,1.1667,1.1679,1.1694,1.1705,1.1706,1.172,1.1719,1.1726,1.1729,1.175,1.1757,1.1747,1.1783,1.1776,1.1778,1.1777,1.178,1.1782,1.178,1.1744,0,0,0,0,0,1.1631,1.1645,1.166,1.1677,1.1683,1.1693,1.1701,1.1705,1.1718,1.1723,1.1733,1.1746,1.1761,1.1771,1.1785,1.1808,1.1812,1.1818,1.182,1.1821,1.1824,1.1838,1.1841,1.1808,1.1808,1.1807,0,0,1.1637,1.1648,1.1656,1.1677,1.1687,1.1702,1.1697,1.1713,1.1724,1.1725,1.1746,1.1754,1.1768,1.1791,1.1801,1.1797,1.1834,1.1823,1.1824,1.1826,1.1839,1.1843,1.1845,1.1809,1.1808,1.1808,0,0,1.1654,1.1664,1.168,1.169,1.1705,1.1712,1.1716,1.1731,1.1737,1.1757,1.1759,1.1773,1.1798,1.1809,1.1818,1.1842,1.1842,1.1846,1.1856,1.187,1.1872,1.1875,1.1884,1.1887,1.1848,1.1848,1.1848,0,1.1659,1.1682,1.1688,1.1704,1.1714,1.1716,1.1733,1.1742,1.1762,1.1768,1.1765,1.1798,1.1808,1.1833,1.1839,1.1846,1.1851,1.1844,1.1872,1.1874,1.1876,1.1885,1.1889,1.1849,1.1849,1.1849,1.1849,0,1.1687,1.1703,1.1714,1.1733,1.1744,1.176,1.177,1.178,1.1783,1.1791,1.1812,1.1825,1.1842,1.1849,1.1851,1.1875,1.1873,1.187,1.1863,1.188,1.1888,1.1892,1.185,1.1849,1.1849,1.1849,0,0,1.1705,1.1729,1.1733,1.1742,1.1759,1.1772,1.1789,1.1806,1.1816,1.1829,1.1844,1.1867,1.1865,1.1875,1.1879,1.1891,1.1911,1.1888,1.1888,1.1892,1.1938,1.194,1.1944,1.1911,1.1912,1.1912,1.1937,0,1.1726,1.1756,1.1762,1.1788,1.1804,1.1807,1.1822,1.1835,1.1843,1.1857,1.1866,1.1882,1.1878,1.1884,1.1896,1.1906,1.192,1.1904,1.1926,1.1927,1.1922,1.1949,1.195,1.1973,1.1941,1.1941,1.1942,0,1.1753,1.1767,1.1795,1.1812,1.1819,1.1832,1.185,1.1863,1.1878,1.1883,1.1895,1.1899,1.1917,1.191,1.1936,1.1925,1.1935,1.1941,1.1942,1.1944,1.1935,1.1952,1.1981,1.1985,1.1947,1.1946,1.1946,0,1.1764,1.1791,1.1811,1.1819,1.1839,1.1848,1.1857,1.1872,1.1883,1.1898,1.1905,1.1922,1.1932,1.1946,1.1954,1.1948,1.1981,1.1973,1.1986,1.1986,1.1993,1.1992,1.2024,1.1998,1.1998,1.1998,1.1998,0,1.1786,1.1803,1.1817,1.1829,1.1849,1.1857,1.1876,1.1885,1.1899,1.1914,1.1917,1.1931,1.1942,1.1957,1.1964,1.1986,1.199,1.1995,1.1997,1.1995,1.1994,1.2001,1.2,1.1999,1.1999,1.1998,1.1998,0,1.1802,1.1812,1.1834,1.1852,1.1857,1.187,1.1886,1.1899,1.1907,1.1926,1.1931,1.1944,1.1963,1.1973,1.1996,1.2001,1.2025,1.2026,1.202,1.2021,1.2034,1.2033,1.2071,1.2077,1.2047,1.2047,1.2047,0,1.1815,1.1829,1.1848,1.1858,1.1867,1.1884,1.1895,1.1904,1.1916,1.1935,1.1946,1.1965,1.198,1.2011,1.2023,1.2041,1.2042,1.2055,1.2045,1.2043,1.2043,1.2043,1.2045,1.2056,1.2057,1.2057,1.2057,0,1.1838,1.1843,1.1859,1.1877,1.189,1.1905,1.1919,1.1927,1.1939,1.1952,1.1971,1.1984,1.2008,1.2028,1.2047,1.2057,1.2059,1.206,1.2064,1.2062,1.2059,1.2062,1.2025,1.2059,1.2059,1.2059,1.2058,1.2058,1.1854,1.1867,1.1882,1.19,1.1912,1.1926,1.1939,1.195,1.1966,1.1987,1.1991,1.2012,1.2029,1.2055,1.2066,1.2083,1.208,1.2086,1.2087,1.2089,1.209,1.2056,1.2086,1.2086,1.2086,1.2086,1.2086,0,1.1878,1.1889,1.1905,1.1926,1.194,1.1941,1.1958,1.197,1.1988,1.2003,1.2019,1.2042,1.2061,1.2075,1.2095,1.2106,1.2108,1.2111,1.211,1.2113,1.209,1.2085,1.2109,1.2109,1.2109,1.2109,1.2109,1.2109,1.1892,1.1914,1.192,1.1949,1.1959,1.198,1.1989,1.2002,1.2015,1.204,1.2056,1.2065,1.208,1.2102,1.212,1.2123,1.2131,1.2134,1.2138,1.2117,1.2114,1.2112,1.2107,1.2136,1.2136,1.2159,1.216,1.216]}]]